星链-2188 (STARLINK-2188 )

导读 | 豆包AI

STARLINK-2188是美国太空探索技术公司(SpaceX)星链计划中的一颗卫星,于2021年5月15日发射升空。星链计划旨在构建全球卫星互联网星座,为全球提供高速互联网接入服务,该卫星入轨后,助力星链网络覆盖范围与服务能力的进一步拓展。

基本信息
目录编号:
48563
目录名称:
STARLINK-2188
国际标识:
2021-041L
轨道中心:
EARTH
卫星名称:
星链-2188
卫星全名:
星链-2188 (STARLINK-2188 )
卫星状态:
在轨 (已飞行1764 天)
发射日期:
2021-05-15 UTC
国别 :
美国 (US)
星等 :
--
轨道信息
数据来源 国际轨道数据
星历时间: 2026-03-14T15:17:41+0800
9小时前
查看轨道信息
半长轴: 6853.377km
偏心率: 0.0001029
轨道倾角: 53.159°
近地点辐角 88.413°
升交点赤经 105.272°
平近点角 271.699°
近地点: 474.534km
远地点: 475.946km
周期: 94.106分钟
每日圈数: 15.301918
详细信息
固有亮度:
5
最大亮度:
2.5
卫星平台:
Starlink V1.0
覆盖范围:
全球
运营商:
太空探索技术公司
运营商所在国:
美国
制造商(研发单位):
太空探索技术公司
制造商所在国:
美国
使用方式:
暂无
卫星简介
星链(Starlink)计划是由太空探索技术公司(SpaceX)提出的一个巨型低轨卫星互联网星座项目,计划在2019年至2024年间在太空搭建由约1.2万颗卫星组成的“星链”网络,其中1584颗将部署在地球上空550千米处的近地轨道,并从2020年开始工作。该卫星仍在工作。
2D轨道图
3D轨道图
轨道高度分析图
轨道倾角分析图
轨道综合分析图
查看轨道综合分析图